Lapse_Rate
5.4 5.6 5.6 5.5 5.5 5.5 5.4 5.4 5.5 5.6 5.6 5.7 5.8 5.9 5.9 6.2 6.3 6.1 6.1 6.4 6.6 7.0 6.8 6.9 7.4 7.5 7.6 8.2 8.2 8.2 7.8 8.6 8.4 9.2 8.5 8.1 7.5 7.7 7.5 7.1 6.8 7.1 6.2 6.5 6.4
5.3 5.3 5.5 5.6 5.5 5.5 5.5 5.4 5.5 5.6 5.6 5.6 5.7 5.9 6.0 6.2 6.3 6.2 6.4 6.4 6.6 6.8 6.8 6.8 7.2 7.6 7.5 8.1 8.3 7.9 8.1 8.0 8.1 8.4 8.4 8.3 7.7 8.0 7.5 7.6 7.5 7.5 7.3 7.0 6.6
5.2 5.4 5.5 5.5 5.6 5.7 5.7 5.6 5.6 5.6 5.7 5.7 5.8 5.9 6.0 6.1 6.2 6.0 6.3 6.4 6.7 6.8 7.0 7.0 7.3 7.7 7.8 8.2 8.4 8.4 8.1 8.3 8.7 8.7 8.5 8.4 8.5 8.3 7.8 7.9 7.7 7.5 7.7 7.5 6.9
5.2 5.3 5.4 5.5 5.6 5.7 5.8 5.9 5.8 5.8 5.8 5.8 5.8 5.9 6.1 6.1 5.8 6.3 6.5 6.4 6.7 7.0 7.0 7.0 7.3 7.8 8.2 8.3 8.6 8.4 8.6 8.5 8.7 8.8 8.9 8.6 8.5 8.4 8.2 8.1 8.0 8.0 7.8 7.5 7.3
5.2 5.3 5.3 5.4 5.5 5.7 5.8 6.0 6.1 6.0 6.0 5.9 5.9 5.9 6.0 6.1 5.9 6.2 6.4 6.4 6.7 7.0 7.0 7.1 7.3 7.8 8.3 8.4 8.7 8.8 8.7 8.6 8.7 8.8 8.9 9.0 9.0 8.7 8.4 8.4 8.3 8.1 7.7 7.3 7.2
5.1 5.2 5.3 5.4 5.5 5.6 5.8 6.0 6.1 6.2 6.2 6.1 6.1 6.0 6.0 6.1 6.2 6.0 6.2 6.5 6.7 6.9 7.0 7.2 7.3 7.8 8.1 8.4 8.7 9.1 8.9 8.9 8.7 8.9 8.9 9.0 8.9 8.9 8.7 8.6 8.2 7.9 7.5 7.1 7.2
5.1 5.2 5.2 5.4 5.6 5.7 5.8 6.0 6.1 6.2 6.3 6.3 6.2 6.2 6.1 5.7 6.0 6.0 6.1 6.4 6.8 7.0 6.8 7.1 7.5 7.9 8.1 8.6 8.7 9.1 9.2 9.0 8.7 8.9 8.9 9.0 8.9 8.9 8.6 8.8 8.4 7.9 7.7 7.3 7.2
5.3 5.3 5.3 5.4 5.5 5.7 5.9 6.1 6.3 6.3 6.4 6.4 6.5 6.4 6.3 6.0 6.0 6.2 6.2 6.4 6.8 6.9 6.7 7.1 7.5 7.8 8.1 8.5 8.8 9.1 9.4 9.6 8.8 8.9 9.2 9.1 9.6 9.0 9.1 8.9 8.7 8.2 7.8 7.6 7.3
5.3 5.4 5.5 5.5 5.6 5.8 6.0 6.1 6.3 6.4 6.5 6.5 6.6 6.5 6.1 6.2 6.1 6.2 6.2 6.3 6.6 6.7 6.6 7.2 7.5 7.9 8.3 8.9 9.4 9.3 9.6 9.5 9.1 9.1 9.2 9.2 9.5 9.3 9.1 8.8 8.8 8.3 7.9 7.7 7.3
5.3 5.4 5.5 5.5 5.6 5.9 6.1 6.3 6.4 6.4 6.5 6.6 6.6 6.5 6.3 6.1 6.3 6.3 6.3 6.2 6.2 6.3 6.4 7.1 7.5 8.2 8.7 9.3 9.5 9.5 9.6 9.5 9.2 8.9 9.1 9.2 9.3 9.3 9.2 9.0 8.4 8.3 8.0 7.6 7.3
5.3 5.4 5.6 5.7 5.8 6.0 6.2 6.3 6.4 6.4 6.5 6.5 6.7 6.6 6.5 6.5 6.4 6.3 6.4 6.2 6.0 6.1 6.5 7.1 7.8 8.4 9.4 9.3 8.8 9.0 9.3 9.4 9.1 9.2 9.2 9.1 8.9 9.3 9.2 9.0 8.7 8.0 8.0 7.3 7.3
5.3 5.4 5.5 5.7 5.9 6.0 6.2 6.3 6.2 6.3 6.5 6.6 6.8 6.7 6.5 6.5 6.4 6.3 6.4 6.1 6.1 6.4 6.7 7.1 7.8 9.1 9.3 8.6 8.9 9.1 9.5 9.6 9.2 9.1 9.2 9.0 8.9 9.2 9.2 9.0 8.8 8.4 7.8 7.4 7.2
5.4 5.5 5.5 5.8 5.8 6.0 6.2 6.3 6.3 6.3 6.5 6.6 6.9 6.8 6.5 6.5 6.3 6.1 6.4 6.3 6.5 6.9 6.9 7.8 8.4 8.9 8.3 8.8 9.0 9.4 9.5 9.5 9.2 8.9 9.3 8.9 9.3 9.1 9.0 9.0 8.7 8.5 8.1 7.4 7.0
5.5 5.6 5.6 5.8 5.8 5.9 6.1 6.2 6.3 6.3 6.3 6.6 6.6 6.8 6.7 6.6 6.3 6.2 6.5 6.5 6.6 6.9 7.3 7.9 8.1 8.1 8.3 9.0 9.2 9.5 9.3 9.2 9.1 9.1 9.6 9.2 9.7 9.4 8.9 8.9 8.9 8.4 8.1 7.4 7.0
5.4 5.7 5.6 5.8 5.8 5.9 6.0 6.1 6.1 6.4 8.1 6.7 6.4 6.8 6.9 6.5 6.4 6.5 6.4 6.4 6.8 7.0 7.2 7.8 7.9 7.8 8.5 9.0 9.2 9.4 9.2 9.2 9.2 9.5 9.5 9.3 9.5 9.7 9.4 8.9 8.2 8.2 7.6 7.6 7.2
5.5 5.8 5.7 5.7 5.9 5.9 6.0 6.0 6.1 6.5 7.8 6.7 6.4 6.6 6.7 6.6 6.7 6.7 6.7 6.6 7.0 7.0 7.3 8.7 8.0 8.1 8.7 9.1 9.0 8.9 9.2 9.2 9.3 9.6 9.7 9.5 9.3 9.7 9.6 9.1 8.5 7.8 7.7 7.6 7.4
5.6 5.9 5.9 5.9 6.0 5.9 6.0 6.0 6.3 7.5 7.0 7.0 6.8 6.6 6.9 6.9 6.9 6.7 6.7 6.7 6.8 7.0 7.3 7.7 8.1 8.1 8.3 8.6 8.9 8.8 9.5 9.6 9.8 9.9 9.9 9.5 9.2 9.7 9.5 9.0 8.8 8.3 7.6 7.5 7.6
5.6 6.0 6.0 6.1 6.0 6.0 6.0 5.8 6.9 7.1 7.1 6.8 6.8 6.9 7.1 7.3 7.2 7.1 7.1 7.1 7.2 7.4 8.2 8.0 8.3 8.3 8.2 8.6 9.5 9.2 9.6 9.6 9.6 9.9 9.9 9.1 9.6 9.7 9.3 9.2 8.8 8.2 7.7 7.6 7.1
5.7 5.9 6.2 6.2 6.1 6.0 6.0 6.5 7.5 7.2 6.8 6.9 7.2 7.3 7.4 7.2 7.3 7.3 7.3 7.4 7.4 7.4 8.1 8.3 9.0 8.8 8.5 8.9 9.3 9.4 9.3 9.6 9.7 9.7 9.8 9.7 9.7 9.3 9.0 9.0 8.8 8.1 7.5 7.6 7.0
5.7 6.0 6.3 6.3 6.2 6.1 5.8 6.9 6.9 6.8 6.6 6.9 7.6 7.6 8.0 7.7 7.3 7.5 7.5 7.4 7.4 7.4 8.0 8.5 9.4 8.5 8.7 8.8 9.3 9.3 9.5 9.7 9.6 9.8 9.6 9.8 9.6 9.7 9.0 8.6 8.4 8.1 7.5 7.3 7.5
5.7 5.9 6.4 6.4 6.3 6.2 6.3 7.0 6.8 6.8 6.9 7.0 7.3 7.6 8.0 8.0 7.8 7.9 7.9 7.6 7.3 7.5 7.9 8.0 9.1 9.0 8.7 9.1 9.6 9.3 9.5 9.6 9.6 9.7 9.9 9.9 9.8 9.2 8.9 8.8 8.4 7.7 7.6 7.3 7.4
5.6 5.7 6.4 6.3 6.2 6.1 6.6 6.7 6.6 6.9 7.0 7.0 7.3 7.4 7.7 7.7 7.8 8.0 7.8 7.7 7.4 7.7 7.6 8.2 9.3 9.5 9.4 9.4 9.4 9.6 9.7 9.7 9.7 9.7 9.7 9.5 9.6 9.2 9.1 9.0 8.4 7.7 7.6 7.4 7.6
5.7 5.9 6.2 6.3 6.3 6.5 6.6 6.8 6.7 6.9 7.1 7.3 7.6 7.7 7.5 7.8 7.9 8.1 8.0 7.9 7.6 7.9 8.1 8.5 8.8 9.6 9.6 9.3 9.3 9.5 9.6 9.6 9.7 9.6 9.6 9.7 9.5 9.3 9.1 8.9 8.8 8.3 8.3 8.0 7.9
5.7 5.7 6.0 6.2 6.4 6.5 6.8 6.9 7.0 7.1 7.1 7.3 7.6 7.7 7.8 8.0 8.1 8.5 8.4 8.1 8.0 8.1 8.4 8.5 9.4 9.6 9.6 9.6 9.6 9.6 9.6 9.2 9.6 9.7 9.8 9.6 9.7 9.1 9.2 9.3 9.2 9.0 8.5 8.4 8.3
5.6 5.5 6.0 6.0 6.1 6.2 6.5 6.6 7.0 7.2 7.1 7.4 7.8 7.8 7.8 8.2 8.4 8.4 8.5 8.5 8.7 8.4 8.3 8.6 9.3 9.5 9.7 9.2 9.3 9.5 9.6 9.3 9.6 9.6 9.5 9.3 9.7 9.2 9.0 9.1 9.3 9.2 8.7 8.4 8.5
5.6 5.9 6.2 6.3 6.4 6.6 6.5 6.9 7.0 7.1 7.2 7.8 7.7 7.8 7.9 7.7 8.0 8.2 8.4 8.7 8.6 8.8 8.4 8.5 9.3 9.5 9.2 9.3 9.2 9.3 9.4 9.6 9.3 9.5 9.4 9.5 9.6 8.9 9.1 9.1 8.9 9.0 9.1 9.0 8.8
5.5 5.8 6.3 5.9 6.2 6.2 6.9 6.9 6.8 6.7 7.4 7.2 7.6 7.8 8.1 7.7 7.9 8.1 8.7 8.4 8.4 8.6 8.7 8.7 9.2 9.0 9.6 9.3 9.2 9.4 9.4 9.5 9.6 9.5 9.4 9.6 9.6 9.2 8.8 9.0 8.8 8.6 8.5 8.6 8.4
Wind_Speed
17 16 16 16 17 18 18 18 17 17 18 19 19 18 18 20 25 6 8 5 3 15 7 3 6 2 2 2 3 2 3 5 7 6 10 7 5 4 3 7 1 3 1 13 19
17 18 18 18 17 17 17 18 18 17 17 18 19 19 18 19 7 11 7 10 4 16 7 6 4 3 0 2 1 4 3 6 7 8 5 5 2 7 5 4 5 6 10 19 20
18 18 19 19 19 19 19 19 17 16 16 16 18 19 19 17 9 3 8 12 8 13 8 7 7 5 2 1 2 2 4 7 5 8 2 2 5 5 3 4 1 7 15 18 19
19 19 18 18 18 19 18 18 17 16 15 15 17 19 21 6 4 6 9 7 8 10 9 6 6 7 3 3 2 4 2 5 7 5 1 4 3 4 5 7 2 10 16 18 17
18 19 19 20 20 18 18 18 17 16 15 14 15 16 8 7 8 6 5 3 7 8 9 7 7 4 4 5 3 5 9 8 7 5 4 4 7 1 3 6 11 14 16 17 16
18 18 18 20 21 21 19 17 17 15 13 12 14 17 7 11 5 4 2 2 2 7 7 8 4 4 6 5 5 9 10 8 3 3 2 5 2 2 5 10 13 15 15 15 15
21 20 21 21 21 21 20 19 17 15 13 11 10 5 7 9 2 4 4 6 4 4 7 6 4 7 3 6 5 8 6 3 9 4 1 3 5 7 8 13 14 14 14 13 13
21 21 22 24 24 23 21 19 18 13 10 9 7 6 6 3 3 11 11 10 11 9 8 3 6 7 7 4 4 4 6 5 6 8 3 6 3 8 9 13 14 13 12 12 12
22 22 23 24 26 25 22 19 14 3 6 6 6 6 4 5 8 6 11 12 10 7 6 3 8 7 6 10 7 5 3 3 1 3 7 7 5 5 7 11 11 12 12 11 11
22 23 23 25 28 27 22 13 1 5 5 5 3 6 6 5 1 2 5 12 12 10 9 10 8 10 10 10 6 2 4 2 5 7 4 6 7 3 6 9 10 11 10 10 11
24 24 24 25 27 25 12 4 5 6 7 7 2 4 2 2 4 8 8 14 13 14 14 14 12 15 17 4 4 5 6 6 5 5 6 4 5 2 4 8 9 10 11 10 10
24 25 25 27 25 19 8 5 5 5 8 11 12 11 9 5 4 9 9 15 15 14 13 9 17 17 6 5 7 6 7 4 2 4 4 1 4 2 5 8 9 9 9 8 8
24 24 25 29 27 5 6 5 2 6 6 4 6 7 6 9 7 10 15 19 16 18 15 19 18 9 11 10 10 11 8 6 7 4 4 5 10 5 5 6 7 10 7 7 8
24 24 25 33 7 6 1 3 7 6 5 8 5 3 7 6 7 7 15 14 9 16 15 13 6 12 16 15 9 14 5 4 6 5 2 2 5 6 3 8 7 9 9 8 8
24 23 21 12 10 4 4 3 0 4 5 3 6 3 4 11 6 10 11 11 16 11 10 14 13 14 16 16 10 11 1 4 4 7 5 9 6 1 3 7 10 9 9 8 6
25 22 19 5 5 8 7 6 4 6 2 5 5 8 11 13 6 10 12 9 9 10 15 11 7 16 16 10 10 3 8 8 6 7 9 7 5 5 5 4 2 10 10 9 8
28 26 12 6 2 2 4 5 6 6 3 5 2 6 12 13 8 14 16 19 14 15 13 14 14 11 8 13 10 10 13 9 9 9 8 6 5 6 5 4 1 12 12 11 9
30 31 6 7 3 6 5 7 6 2 1 2 3 6 11 12 11 11 14 17 21 18 12 15 17 16 13 16 15 17 16 12 7 10 4 6 6 2 4 2 3 11 14 12 10
33 3 3 3 7 5 6 9 2 3 2 6 5 9 10 10 7 12 14 16 17 16 15 14 15 17 9 13 13 9 10 10 9 7 9 11 3 11 6 4 7 12 13 13 12
8 5 2 2 8 7 8 12 3 2 3 5 3 4 11 15 13 13 12 14 17 19 19 9 13 11 13 7 5 7 1 9 9 9 9 4 4 5 2 8 10 14 15 15 14
5 4 6 5 6 7 9 10 7 8 7 4 2 3 5 6 15 14 11 9 16 20 16 7 14 10 10 13 14 7 10 8 10 5 7 6 2 8 2 2 14 15 16 16 16
4 4 6 4 6 6 10 7 2 9 7 6 6 7 8 3 9 14 12 11 16 21 18 16 12 13 19 7 5 8 9 11 9 12 7 7 3 7 2 2 10 13 15 17 15
5 3 4 5 6 8 6 9 9 10 10 4 5 7 1 5 6 11 13 15 11 22 21 13 9 11 11 9 6 9 8 11 8 4 5 10 5 3 3 3 9 13 15 16 15
4 3 4 6 4 8 7 8 9 7 10 7 8 8 7 10 11 6 13 9 13 18 17 13 15 14 14 14 9 14 9 11 12 9 6 9 4 7 1 6 11 12 15 17 16
3 2 3 6 9 6 4 0 6 5 7 5 6 9 10 6 7 13 12 7 9 8 18 21 17 12 3 3 3 9 8 9 10 6 8 7 2 6 3 4 10 10 14 17 18
4 3 1 7 5 9 6 6 7 6 4 7 8 6 5 2 3 2 6 11 8 10 18 18 16 13 12 5 7 9 8 9 9 5 8 7 8 7 2 2 9 12 15 18 17
1 2 4 3 5 9 10 9 2 2 5 7 5 10 4 2 4 4 4 7 6 16 20 20 13 11 13 6 7 11 12 11 8 8 10 9 3 4 2 3 6 10 13 13 11
Wind_Direction
358 355 353 351 348 348 343 340 338 337 333 330 330 329 324 320 308 250 277 32 336 163 226 197 224 311 252 359 330 307 267 78 47 37 84 137 141 147 95 122 115 99 38 114 143
358 354 352 350 344 343 340 337 336 333 330 327 325 323 322 323 282 271 24 348 241 178 224 276 325 310 242 19 357 301 348 19 330 309 10 157 187 142 174 142 136 99 106 129 147
356 353 350 346 343 342 338 339 330 328 326 322 319 319 318 314 270 162 358 342 216 194 262 279 283 287 285 344 28 24 7 344 335 343 306 209 188 168 173 161 106 141 147 149 154
354 352 349 345 341 336 333 333 330 324 320 318 318 318 315 259 240 106 353 349 185 218 239 242 255 255 302 14 4 282 307 307 308 352 266 206 194 184 208 72 67 123 155 158 166
353 352 346 341 339 334 333 329 326 319 315 314 314 317 292 225 247 132 308 148 154 189 219 234 257 274 314 350 291 259 329 321 313 298 247 199 219 238 169 91 117 132 158 169 174
346 348 342 340 336 334 329 325 321 312 305 306 309 311 252 242 86 163 305 226 178 213 207 227 267 323 295 315 298 332 303 313 342 90 167 235 245 233 148 139 139 147 163 173 180
341 337 338 339 337 333 328 322 314 303 290 288 299 294 249 243 123 194 254 233 228 278 224 224 256 250 339 293 337 296 283 204 47 38 95 246 216 218 145 162 155 157 166 172 182
337 335 336 335 330 331 325 319 310 291 264 263 275 253 260 143 265 252 248 248 242 257 248 276 242 266 262 298 247 276 253 248 66 7 98 232 328 109 170 176 170 162 167 179 185
333 333 332 329 329 326 321 314 308 247 195 209 230 251 251 139 225 224 217 227 198 188 211 225 215 251 216 252 229 225 195 273 338 46 321 232 339 69 175 186 183 178 169 179 193
334 329 329 331 329 329 315 300 197 184 197 212 259 245 225 177 112 213 192 223 189 172 170 201 211 224 224 235 262 104 236 237 341 18 316 274 267 64 175 204 192 192 175 184 194
334 330 330 330 329 332 313 214 211 183 209 257 79 299 143 334 211 194 178 191 205 197 202 200 214 216 224 200 351 293 284 294 31 11 305 328 302 305 195 200 206 201 190 191 191
330 329 332 331 325 317 282 279 25 357 293 222 247 261 264 295 254 189 185 189 195 204 208 184 223 221 243 191 246 255 278 290 134 7 269 299 285 256 214 220 217 217 213 203 200
326 325 334 330 323 266 314 284 4 331 261 171 215 252 227 200 229 181 195 202 197 210 202 225 212 201 196 206 237 235 273 354 332 326 237 268 240 227 184 217 216 227 223 218 217
325 324 335 332 285 341 251 95 297 244 264 133 181 160 185 226 228 195 203 197 200 207 207 225 166 200 216 232 228 259 123 291 304 272 262 267 315 201 236 223 202 208 210 212 204
323 323 329 325 310 271 31 290 285 234 250 110 135 97 175 214 110 177 188 213 195 203 198 194 194 205 218 227 219 270 278 305 285 236 234 166 274 339 169 254 212 203 181 193 192
319 319 329 221 233 271 290 281 226 229 180 132 135 176 176 203 188 139 183 227 225 183 215 230 217 213 221 201 218 112 236 231 232 261 243 98 287 282 38 9 134 181 172 165 169
315 311 303 272 321 313 285 208 227 250 146 129 132 184 201 180 170 174 186 195 189 195 195 211 199 188 210 211 198 219 236 231 213 207 243 102 243 308 13 330 202 181 168 163 167
318 312 176 244 254 268 233 221 246 76 204 130 232 191 197 194 197 186 191 200 213 210 201 206 204 194 188 226 207 212 235 244 241 258 281 151 260 353 55 84 163 182 161 170 159
315 282 244 177 216 229 228 220 248 176 42 350 158 195 188 191 240 204 209 212 196 217 232 205 231 185 192 211 237 171 223 279 298 236 264 270 195 249 193 154 155 159 173 175 142
317 290 207 335 186 200 222 247 202 255 322 326 271 240 193 187 198 200 187 211 203 204 232 213 216 189 178 197 194 279 150 208 220 268 267 241 246 282 135 193 181 175 187 168 148
264 270 36 155 196 201 222 225 242 230 275 293 302 270 244 204 211 204 214 203 204 197 222 220 234 157 166 208 185 183 223 233 300 315 297 254 124 77 10 230 190 185 189 166 164
292 237 145 227 208 203 230 217 277 250 224 266 282 261 274 201 207 228 222 218 195 199 197 220 215 172 198 107 357 287 243 242 232 204 237 317 327 102 11 270 189 186 182 168 175
307 296 155 246 227 204 199 235 243 252 240 239 252 234 309 265 229 222 224 216 188 203 201 187 234 196 149 159 187 225 205 235 244 305 195 278 87 119 66 177 172 179 177 171 175
281 223 160 216 284 277 207 223 223 210 258 251 264 281 270 282 219 230 225 192 204 215 202 188 227 222 191 201 206 199 198 224 230 227 191 222 52 114 113 166 186 188 184 177 175
227 83 359 192 208 224 230 282 223 236 205 212 228 246 307 275 213 212 235 173 203 199 198 212 228 229 106 37 45 305 193 206 244 315 304 40 303 101 1 236 209 189 187 181 184
303 326 304 292 249 229 187 226 254 232 236 199 245 297 313 6 328 276 319 202 177 180 201 213 223 223 245 228 261 256 233 207 226 245 252 272 272 99 68 239 198 202 202 191 191
33 245 279 154 225 228 225 238 257 269 223 262 296 297 238 139 283 309 293 288 278 189 184 200 217 205 221 205 244 236 221 208 217 235 246 245 304 133 173 245 233 217 207 200 181